Regional Weather Roundup
Issued by NWS State College, PA

Home | Current Version | Previous Version | Graphics & Text | Print | Product List | Glossary On
Versions: 1 2 3 4 5 6 7 8 9 10 11 12 13 14 15 16 17 18 19 20 21 22 23 24 25 26 27 28 29 30 31 32 33 34 35 36 37 38 39 40 41 42 43 44 45 46 47 48 49 50
000
ASUS41 KCTP 262303
RWRCTP

REGIONAL WEATHER ROUNDUP
NATIONAL WEATHER SERVICE STATE COLLEGE PA
600 PM EST WED NOV 26 2014

Note: "fair" indicates few or no clouds below 12,000 feet with no
significant weather and/or obstructions to visibility.

* = STATION THAT DOES NOT REPORT PRECIPITATION /E.G. RAIN...SNOW...ETC/
    THUNDER OR FOG.

PAZ002>004-007>009-013>016-020>023-029>032-270000-
WESTERN PENNSYLVANIA

CITY           SKY/WX    TMP DP  RH WIND       PRES   REMARKS
ERIE           CLOUDY    35  28  75 E5        30.03F
MEADVILLE      CLOUDY    33  28  81 NE3       30.00S
FRANKLIN*      CLOUDY    30  28  93 CALM      30.00F
NEW CASTLE       N/A     33  30  89 CALM      30.02F
BEAVER COUNTY  CLOUDY    32  32 100 CALM      30.00S
BUTLER*        CLOUDY    32  30  93 CALM      30.02S
PITTSBURGH INT LGT SNOW  32  31  96 NW5       30.01R FOG
PITTSBURGH     MIX PCPN  32  29  88 CALM      29.99F FOG
INDIANA*       CLOUDY    32  32 100 CALM      30.02S FOG
LATROBE        LGT RAIN  32  32 100 CALM      30.02R
WASHINGTON CO* CLOUDY    32  30  93 CALM      30.02S
$$

PAZ004>006-010>012-017>019-024>028-033>037-041-042-045-046-049>053-270000-
CENTRAL PENNSYLVANIA

CITY           SKY/WX    TMP DP  RH WIND       PRES   REMARKS
BRADFORD       LGT SNOW  29  25  85 N3        29.96S FOG
DUBOIS         CLOUDY    31  29  92 N3        29.95S FOG
CLEARFIELD     LGT SNOW  31  29  92 NE3       29.97S FOG
JOHNSTOWN      CLOUDY    30  28  92 NW6       29.92S FOG
ALTOONA        SNOW      31  30  96 CALM      29.95S VSB 1/2
STATE COLLEGE  LGT SNOW  32  30  93 NE6       29.98S FOG
WILLIAMSPORT   LGT SNOW  33  30  88 W8        29.99S FOG
SELINSGROVE    LGT SNOW  33  31  92 N5        30.00R FOG
FT INDIANTOWN  FLURRIES  35  30  85 NW13G23   29.94R
CAPITAL CITY   LGT SNOW  34  32  92 NW10      29.97R FOG
HARRISBURG     LGT SNOW  34  32  92 NW14      29.95R FOG
YORK           LGT SNOW  34  32  92 NW8       29.95S FOG
$$

PAZ038>040-043-044-047-048-054-055-060>062-067>071-270000-
EASTERN PENNSYLVANIA

CITY           SKY/WX    TMP DP  RH WIND       PRES   REMARKS
SCRANTON       LGT SNOW  32  30  92 W8        29.93R FOG
MOUNT POCONO   LGT SNOW  30  27  88 NW13      29.83R VSB 1
ALLENTOWN      LGT SNOW  34  31  88 NW8       29.89R FOG
QUAKERTOWN*    CLOUDY    32  32 100 N7        29.88R
READING        LGT SNOW  35  32  88 NW8       29.93R FOG
LANCASTER      LGT SNOW  33  32  96 NW7       29.93R FOG
COATESVILLE    LGT SNOW  32  32 100 NW12      29.90R
POTTSTOWN      LGT SNOW  33  32  96 NW10      29.90R FOG
BLUE BELL      CLOUDY    34  34 100 NW3       29.87R
DOYLESTOWN     LGT SNOW  32  32 100 N10       29.85R FOG
WILLOW GROVE   NOT AVBL
NORTH PHILA    LGT RAIN  36  31  82 NW13      29.87R
PHILADELPHIA   LGTSLEET  36  32  85 NW17      29.87R FOG
$$



USA.gov is the U.S. government's official web portal to all federal, state and local government web resources and services.